Location: Unspecified
(0.0000°N, 0.0000°E)
Time: 05:38:05
(UTC+00:00)

Envisat - Pass Details

Date: 04 August 2020
Orbit: 764 x 766 km, 98.1° (Epoch: 13 August)

Event Time Altitude Azimuth Distance (km) Brightness Sun altitude
Rises 18:23:37 0° 186° (S) 3,231 6.1 -4.2°
Reaches altitude 10° 18:26:08 10° 196° (SSW) 2,302 5.5 -4.8°
Maximum altitude 18:30:35 31° 258° (WSW) 1,316 5.0 -5.9°
Drops below altitude 10° 18:35:01 10° 319° (NW) 2,293 6.5 -6.9°
Sets 18:37:32 0° 330° (NNW) 3,216 7.0 -7.5°
